Starlink 4026

operational
NORAD ID: 52600 Int'l Des: 2022-052 Owner: SPXS Country: US Constellation: starlink
LEOCIRCULAR

Über Starlink 4026

Beschreibung wird geladen...

Live-Position

3D-Globus wird geladen...

Nächste Überflüge

Höhenverlauf

Altitude vs Time

uPlot chart will show altitude changes over time

Zweizeiliger Elementsatz

1 52600U 22052C 25295.41645944 .00000722 00000-0 63437-4 0 9992
2 52600 53.2170 179.8512 0001502 91.8887 268.2277 15.08839214190785
Epoch: 22. Okt. 2025 • Age: 53 hours

Aktueller Status

Höhe 540.5 km
Geschwindigkeit 7.60 km/s
Subsatellitenpunkt 26.73°N, 60.36°W
Startdatum 14. Mai 2022
Alter 3.4 years
Typ internet

Technische Details

Klassifizierung Payload
Masse 297.00 kg
Trockenmasse 275.00 kg
Gesamtmasse 297.00 kg
Länge 0.20 m
Durchmesser 2.80 m
Spannweite 9.00 m
Form Box + pan
Hersteller SPXS
Bus-Typ Starlink
Phasenstatus In Orbit
Besitzer/Staat SPXS/US

Große Konstellationen

Loading constellations...